ELECTRON KICK STAGE R/B (49953 NORAD) Tracking and Keplerian Element Data

This shows tracking and keplerian element data for the satellite.

Feedback or suggestion? Click here.




ElementValue
Catalog49953
NameELECTRON KICK STAGE R/B
Epoch Orbit80
Epoch Day348.24934278
Epoch Year2021
RAAN339.1822
Inclination42.0242
Eccentricity0.0053099
Argument of Perigee116.2646
Mean Anonmoly244.3699
Mean Motion16.35251462
Decay Rate0.12583667
L11 49953U 21120E 21348.24934278 .12583667 81711-5 57118-3 0 9999
L22 49953 42.0242 339.1822 0053099 116.2646 244.3699 16.35251462 806



Live tracking and technical data element details for ELECTRON KICK STAGE R/B (NORAD 49953). ELECTRON KICK STAGE R/B can be tracked NOW for your location showing map with azimuth and elevation plus other details from your city location.







IsCatalogInMostPopularTable: catalog: 49953, numindb: 37
Update: records affected: 1



GetName: 49953 ELECTRON KICK STAGE R/B

Hit Count: updated at: Sun, 28 May 2023 06:42:49 GMT